W4UWO Weather Reports


Display with metric or nautical units.
time (UTC)temp
F
wind
direction
speed
MPH
gust
MPH
rain 1hr
in
rain 24hr
in
rain mn
in
humidity
%
barometer
mb
20260906012640 82 198 2.0 1.0 0.00 0.00 0.00 77 1012.6
20260906012140 82 179 0.0 0.0 0.00 0.00 0.00 77 1012.5
20260906011636 82 177 1.0 1.0 0.00 0.00 0.00 76 1012.4
20260906011130 83 172 0.0 0.0 0.00 0.00 0.00 71 1012.6
20260906010626 85 164 1.0 1.0 0.00 0.00 0.00 71 1012.4
20260906010122 85 153 0.0 0.0 0.00 0.00 0.00 62 1012.2
20260906005621 85 138 1.0 1.0 0.00 0.00 0.00 62 1012.4
20260906005121 85 176 1.0 1.0 0.00 0.00 0.00 63 1012.4
20260906004620 85 158 0.0 1.0 0.00 0.00 0.00 63 1012.3
20260906004115 85 154 0.0 0.0 0.00 0.00 0.00 63 1012.4
20260906003610 86 159 1.0 1.0 0.00 0.00 0.00 65 1012.6
20260906003107 87 172 1.0 1.0 0.00 0.00 0.00 62 1012.7
20260906002607 88 139 1.0 2.0 0.00 0.00 0.00 59 1013.2
20260906002102 89 102 4.0 7.0 0.00 0.00 0.00 54 1012.9
20260906001557 90 122 7.0 8.0 0.00 0.00 0.00 55 1013.0
20260906001057 91 99 4.0 8.0 0.00 0.00 0.00 54 1012.9
20260906000553 91 140 4.0 4.0 0.00 0.00 0.00 54 1012.6
20260906000048 93 101 2.0 2.0 0.00 0.00 0.00 53 1012.7
20260905235547 95 116 6.0 9.0 0.00 0.00 0.00 50 1012.3
20260905235042 96 135 2.0 2.0 0.00 0.00 0.00 46 1012.4
20260905234537 96 138 0.0 0.0 0.00 0.00 0.00 45 1012.5
20260905234032 97 227 1.0 1.0 0.00 0.00 0.00 44 1012.4
20260905233527 98 224 1.0 1.0 0.00 0.00 0.00 43 1012.0
20260905233027 98 236 2.0 2.0 0.00 0.00 0.00 43 1011.7
20260905232522 98 229 1.0 1.0 0.00 0.00 0.00 42 1011.8
20260905232018 99 200 1.0 1.0 0.00 0.00 0.00 42 1012.0
20260905231513 98 251 1.0 1.0 0.00 0.00 0.00 41 1011.9
20260905231009 99 216 2.0 2.0 0.00 0.00 0.00 41 1011.5
20260905230508 99 266 2.0 2.0 0.00 0.00 0.00 41 1011.8
20260905230007 99 295 2.0 3.0 0.00 0.00 0.00 41 1011.7
20260905225501 99 248 2.0 2.0 0.00 0.00 0.00 41 1012.1
20260905224956 98 230 1.0 1.0 0.00 0.00 0.00 41 1011.9
20260905224452 99 359 2.0 2.0 0.00 0.00 0.00 41 1011.8
20260905223951 99 229 2.0 2.0 0.00 0.00 0.00 40 1011.9
20260905223449 99 282 2.0 2.0 0.00 0.00 0.00 39 1012.0
20260905222944 100 238 3.0 3.0 0.00 0.00 0.00 39 1011.8
20260905222443 99 228 1.0 1.0 0.00 0.00 0.00 39 1011.9
20260905221939 100 273 5.0 7.0 0.00 0.00 0.00 38 1011.9
20260905221436 100 352 5.0 7.0 0.00 0.00 0.00 37 1011.8
20260905220932 101 251 3.0 4.0 0.00 0.00 0.00 37 1011.9
20260905220427 102 289 3.0 3.0 0.00 0.00 0.00 37 1011.8
20260905215926 101 232 2.0 1.0 0.00 0.00 0.00 37 1011.7
20260905215422 100 347 3.0 3.0 0.00 0.00 0.00 37 1011.7
20260905214918 101 223 1.0 1.0 0.00 0.00 0.00 37 1011.8
20260905214414 101 237 3.0 3.0 0.00 0.00 0.00 38 1011.8
20260905213914 101 48 2.0 2.0 0.00 0.00 0.00 38 1011.8
20260905213410 102 285 3.0 3.0 0.00 0.00 0.00 37 1011.8
20260905212905 102 218 2.0 1.0 0.00 0.00 0.00 37 1011.9
20260905212400 102 265 2.0 2.0 0.00 0.00 0.00 36 1011.9
20260905211859 101 223 2.0 2.0 0.00 0.00 0.00 37 1011.9
20260905211355 100 224 2.0 2.0 0.00 0.00 0.00 39 1012.0
20260905210851 101 242 5.0 6.0 0.00 0.00 0.00 38 1012.1
20260905210351 101 219 2.0 2.0 0.00 0.00 0.00 38 1012.2
20260905205850 101 230 2.0 2.0 0.00 0.00 0.00 38 1012.3
20260905205345 101 268 9.0 10.0 0.00 0.00 0.00 38 1012.4
20260905204844 101 346 5.0 4.0 0.00 0.00 0.00 39 1012.5
20260905204341 101 296 4.0 6.0 0.00 0.00 0.00 38 1012.4
20260905203839 101 281 1.0 2.0 0.00 0.00 0.00 38 1012.3
20260905203335 101 284 2.0 2.0 0.00 0.00 0.00 38 1012.6
20260905202831 101 316 4.0 4.0 0.00 0.00 0.00 37 1012.6
20260905202325 100 233 2.0 1.0 0.00 0.00 0.00 39 1012.7
20260905201821 101 354 10.0 11.0 0.00 0.00 0.00 38 1012.6
20260905201317 100 254 2.0 2.0 0.00 0.00 0.00 38 1012.8
20260905200816 101 267 3.0 4.0 0.00 0.00 0.00 37 1012.9
20260905200313 100 318 3.0 4.0 0.00 0.00 0.00 38 1013.0
20260905195810 101 265 4.0 7.0 0.00 0.00 0.00 38 1013.2
20260905195307 100 268 2.0 2.0 0.00 0.00 0.00 39 1013.2
20260905194801 101 307 3.0 3.0 0.00 0.00 0.00 38 1013.4
20260905194301 101 343 4.0 6.0 0.00 0.00 0.00 39 1013.2
20260905193800 101 222 3.0 3.0 0.00 0.00 0.00 38 1013.3
20260905193255 100 276 4.0 4.0 0.00 0.00 0.00 39 1013.4
20260905192750 100 236 3.0 3.0 0.00 0.00 0.00 40 1013.5
20260905192247 101 286 3.0 3.0 0.00 0.00 0.00 38 1013.5
20260905191746 101 327 3.0 3.0 0.00 0.00 0.00 39 1013.5
20260905191244 99 195 1.0 1.0 0.00 0.00 0.00 41 1013.4
20260905190743 98 186 0.0 0.0 0.00 0.00 0.00 43 1013.7
20260905190242 98 148 1.0 1.0 0.00 0.00 0.00 43 1013.7
20260905185736 99 331 4.0 4.0 0.00 0.00 0.00 43 1013.7
20260905185231 101 217 2.0 2.0 0.00 0.00 0.00 41 1013.7
20260905184731 100 221 2.0 2.0 0.00 0.00 0.00 41 1014.0
20260905184230 99 246 3.0 3.0 0.00 0.00 0.00 42 1013.9
20260905183729 98 239 4.0 4.0 0.00 0.00 0.00 43 1014.0
20260905183225 99 218 2.0 2.0 0.00 0.00 0.00 43 1014.1
20260905182725 100 286 6.0 8.0 0.00 0.00 0.00 42 1014.4
20260905182224 99 273 1.0 2.0 0.00 0.00 0.00 42 1014.5
20260905181720 100 258 4.0 7.0 0.00 0.00 0.00 40 1014.6
20260905181218 99 221 2.0 2.0 0.00 0.00 0.00 42 1014.4
20260905180713 99 265 2.0 2.0 0.00 0.00 0.00 42 1014.6
20260905180209 99 303 6.0 7.0 0.00 0.00 0.00 42 1014.4
20260905175708 99 196 2.0 2.0 0.00 0.00 0.00 42 1014.6
20260905175203 98 226 2.0 2.0 0.00 0.00 0.00 42 1014.7
20260905174659 99 245 2.0 3.0 0.00 0.00 0.00 44 1014.7
20260905174154 99 325 5.0 6.0 0.00 0.00 0.00 45 1014.8
20260905173650 98 227 3.0 3.0 0.00 0.00 0.00 46 1015.0
20260905173146 97 173 1.0 1.0 0.00 0.00 0.00 51 1014.9
20260905172645 97 210 5.0 4.0 0.00 0.00 0.00 49 1014.9
20260905172139 97 273 2.0 2.0 0.00 0.00 0.00 48 1015.0
20260905171635 98 272 3.0 3.0 0.00 0.00 0.00 48 1015.0
20260905171131 97 186 1.0 1.0 0.00 0.00 0.00 50 1015.3
20260905170628 95 176 1.0 1.0 0.00 0.00 0.00 53 1015.1
20260905170123 96 191 2.0 3.0 0.00 0.00 0.00 52 1015.2
20260905165617 95 135 1.0 2.0 0.00 0.00 0.00 52 1015.3
20260905165113 95 253 3.0 3.0 0.00 0.00 0.00 52 1015.2
20260905164608 96 358 4.0 3.0 0.00 0.00 0.00 51 1015.4
20260905164107 96 230 2.0 2.0 0.00 0.00 0.00 52 1015.5
20260905163603 95 186 1.0 2.0 0.00 0.00 0.00 54 1015.4
20260905163059 94 171 1.0 1.0 0.00 0.00 0.00 53 1015.6
20260905162555 93 264 2.0 2.0 0.00 0.00 0.00 55 1015.6
20260905162054 94 232 3.0 3.0 0.00 0.00 0.00 54 1015.7
20260905161549 93 234 3.0 3.0 0.00 0.00 0.00 54 1015.6
20260905161047 93 249 3.0 4.0 0.00 0.00 0.00 54 1015.8
20260905160546 93 161 1.0 1.0 0.00 0.00 0.00 58 1015.8
20260905160046 93 213 1.0 1.0 0.00 0.00 0.00 55 1016.0
20260905155545 92 175 1.0 1.0 0.00 0.00 0.00 57 1016.0
20260905155044 92 192 1.0 1.0 0.00 0.00 0.00 57 1015.9
20260905154539 91 235 2.0 2.0 0.00 0.00 0.00 57 1016.1
20260905154035 91 267 3.0 3.0 0.00 0.00 0.00 58 1016.0
20260905153531 90 246 2.0 2.0 0.00 0.00 0.00 60 1016.2
20260905153030 89 216 1.0 1.0 0.00 0.00 0.00 63 1016.5
20260905152525 89 216 1.0 1.0 0.00 0.00 0.00 63 1016.1
20260905152020 88 211 1.0 1.0 0.00 0.00 0.00 64 1016.1
20260905151516 88 178 2.0 2.0 0.00 0.00 0.00 65 1016.1
20260905151011 87 213 1.0 1.0 0.00 0.00 0.00 68 1016.4
20260905150506 85 213 1.0 1.0 0.00 0.00 0.00 70 1016.6
20260905150003 84 213 1.0 1.0 0.00 0.00 0.00 75 1016.0
20260905145457 83 233 1.0 1.0 0.00 0.00 0.00 76 1016.2
20260905144956 82 234 1.0 1.0 0.00 0.00 0.00 79 1016.4
20260905144452 82 237 0.0 0.0 0.00 0.00 0.00 80 1016.2
20260905143951 81 238 0.0 0.0 0.00 0.00 0.00 80 1016.5
20260905143450 81 238 1.0 1.0 0.00 0.00 0.00 81 1016.2
20260905142945 81 237 1.0 1.0 0.00 0.00 0.00 81 1016.4
20260905142443 80 238 0.0 0.0 0.00 0.00 0.00 82 1016.5
20260905141940 80 219 1.0 1.0 0.00 0.00 0.00 82 1016.5
20260905141440 80 217 1.0 1.0 0.00 0.00 0.00 83 1016.6
20260905140936 80 205 0.0 0.0 0.00 0.00 0.00 84 1016.5
20260905140431 80 206 0.0 0.0 0.00 0.00 0.00 85 1016.5
20260905135930 80 206 1.0 1.0 0.00 0.00 0.00 85 1016.5
20260905135426 80 160 1.0 1.0 0.00 0.00 0.00 85 1016.6
20260905134921 80 160 0.0 0.0 0.00 0.00 0.00 85 1016.6
20260905134420 80 160 0.0 0.0 0.00 0.00 0.00 84 1016.6
20260905133915 80 160 0.0 0.0 0.00 0.00 0.00 85 1016.6
20260905133414 79 160 0.0 0.0 0.00 0.00 0.00 85 1016.6
20260905132914 79 160 0.0 0.0 0.00 0.00 0.00 85 1016.7
20260905132410 79 160 0.0 0.0 0.00 0.00 0.00 85 1016.6
20260905131904 79 160 0.0 0.0 0.00 0.00 0.00 85 1016.5
20260905131400 79 160 0.0 0.0 0.00 0.00 0.00 85 1016.6
20260905130855 78 160 0.0 0.0 0.00 0.00 0.00 85 1016.7
20260905130354 78 160 1.0 1.0 0.00 0.00 0.00 85 1016.5
20260905125849 78 160 0.0 0.0 0.00 0.00 0.00 86 1016.7
20260905125344 78 160 1.0 0.0 0.00 0.00 0.00 86 1016.4
20260905124840 78 159 1.0 1.0 0.00 0.00 0.00 86 1016.6
20260905124336 78 159 0.0 0.0 0.00 0.00 0.00 86 1016.8
20260905123836 77 159 0.0 0.0 0.00 0.00 0.00 87 1016.8
20260905123333 77 159 0.0 0.0 0.00 0.00 0.00 88 1016.7
20260905122833 77 159 0.0 0.0 0.00 0.00 0.00 88 1016.6
20260905122331 77 159 0.0 0.0 0.00 0.00 0.00 89 1016.5
20260905121827 76 159 0.0 0.0 0.00 0.00 0.00 89 1016.5
20260905121324 76 159 0.0 0.0 0.00 0.00 0.00 89 1016.6
20260905120822 76 159 0.0 0.0 0.00 0.00 0.00 90 1016.5
20260905120317 76 159 0.0 0.0 0.00 0.00 0.00 90 1016.2
20260905115812 76 159 0.0 0.0 0.00 0.00 0.00 90 1016.0
20260905115312 76 159 0.0 0.0 0.00 0.00 0.00 90 1016.1
20260905114812 75 159 0.0 0.0 0.00 0.00 0.00 90 1016.0
20260905114310 75 159 0.0 0.0 0.00 0.00 0.00 92 1015.8
20260905113810 75 159 0.0 0.0 0.00 0.00 0.00 92 1015.8
20260905113306 75 159 0.0 0.0 0.00 0.00 0.00 91 1015.7
20260905112801 75 159 0.0 0.0 0.00 0.00 0.00 91 1015.7
20260905112256 74 158 0.0 0.0 0.00 0.00 0.00 93 1015.7
20260905111751 74 159 0.0 0.0 0.00 0.00 0.00 92 1015.5
20260905111251 75 159 0.0 0.0 0.00 0.00 0.00 92 1015.4
20260905110751 75 158 0.0 0.0 0.00 0.00 0.00 92 1015.0
20260905110250 75 158 0.0 0.0 0.00 0.00 0.00 92 1015.3
20260905105746 75 158 0.0 0.0 0.00 0.00 0.00 91 1015.4
20260905105245 76 158 0.0 0.0 0.00 0.00 0.00 90 1015.3
20260905104739 75 158 0.0 0.0 0.00 0.00 0.00 91 1015.2
20260905104236 75 157 0.0 0.0 0.00 0.00 0.00 92 1015.1
20260905103730 75 157 0.0 0.0 0.00 0.00 0.00 91 1015.3
20260905103226 75 157 0.0 0.0 0.00 0.00 0.00 92 1015.0
20260905102721 75 158 0.0 0.0 0.00 0.00 0.00 92 1015.2
20260905102218 75 158 0.0 0.0 0.00 0.00 0.00 91 1015.2
20260905101717 76 157 0.0 0.0 0.00 0.00 0.00 90 1015.2
20260905101215 76 157 0.0 0.0 0.00 0.00 0.00 90 1015.2
20260905100711 77 157 0.0 0.0 0.00 0.00 0.00 89 1015.1
20260905100207 76 157 0.0 0.0 0.00 0.00 0.00 89 1015.1
20260905095706 76 157 0.0 0.0 0.00 0.00 0.00 91 1015.2
20260905095201 76 157 0.0 0.0 0.00 0.00 0.00 91 1015.2
20260905094701 76 157 0.0 0.0 0.00 0.00 0.00 91 1015.2
20260905094201 76 157 0.0 0.0 0.00 0.00 0.00 91 1014.8
20260905093655 76 157 1.0 1.0 0.00 0.00 0.00 90 1014.8
20260905093151 76 157 0.0 0.0 0.00 0.00 0.00 90 1015.0
20260905092646 76 157 0.0 0.0 0.00 0.00 0.00 90 1015.0
20260905092142 77 157 1.0 0.0 0.00 0.00 0.00 89 1014.7
20260905091641 76 157 0.0 0.0 0.00 0.00 0.00 90 1014.9
20260905091141 75 151 0.0 0.0 0.00 0.00 0.00 92 1014.8
20260905090636 76 134 2.0 2.0 0.00 0.00 0.00 92 1014.9
20260905090132 76 137 1.0 1.0 0.00 0.00 0.00 91 1014.9
20260905085630 76 152 1.0 1.0 0.00 0.00 0.00 89 1015.0
20260905085126 76 187 0.0 0.0 0.00 0.00 0.00 89 1014.8
20260905084625 76 187 0.0 0.0 0.00 0.00 0.00 89 1014.9
20260905084121 77 187 0.0 0.0 0.00 0.00 0.00 89 1014.9
20260905083621 77 187 0.0 0.0 0.00 0.00 0.00 89 1014.8
20260905083117 77 188 0.0 0.0 0.00 0.00 0.00 88 1015.0
20260905082612 76 188 0.0 0.0 0.00 0.00 0.00 89 1015.1
20260905082108 77 188 0.0 0.0 0.00 0.00 0.00 89 1014.9
20260905081608 77 188 1.0 1.0 0.00 0.00 0.00 89 1014.9
20260905081103 77 188 0.0 0.0 0.00 0.00 0.00 89 1015.0
20260905080603 77 188 0.0 0.0 0.00 0.00 0.00 89 1014.8
20260905080057 77 188 0.0 0.0 0.00 0.00 0.00 89 1015.1
20260905075551 77 188 0.0 0.0 0.00 0.00 0.00 89 1014.9
20260905075051 77 188 0.0 0.0 0.00 0.00 0.00 90 1014.9
20260905074550 77 188 0.0 0.0 0.00 0.00 0.00 90 1014.6
20260905074047 77 188 0.0 0.0 0.00 0.00 0.00 89 1015.0
20260905073541 77 188 0.0 0.0 0.00 0.00 0.00 89 1015.0
20260905073037 77 188 0.0 0.0 0.00 0.00 0.00 89 1015.0
20260905072536 77 188 0.0 0.0 0.00 0.00 0.00 90 1015.0
20260905072032 77 188 0.0 0.0 0.00 0.00 0.00 89 1015.1
20260905071528 77 188 0.0 0.0 0.00 0.00 0.00 89 1015.1
20260905071028 77 188 0.0 0.0 0.00 0.00 0.00 88 1015.0
20260905070524 77 188 0.0 0.0 0.00 0.00 0.00 89 1015.2
20260905070020 78 189 1.0 1.0 0.00 0.00 0.00 88 1015.3
20260905065517 78 189 0.0 0.0 0.00 0.00 0.00 87 1015.3
20260905065013 78 189 0.0 0.0 0.00 0.00 0.00 87 1015.3
20260905064513 78 189 0.0 0.0 0.00 0.00 0.00 87 1015.3
20260905064008 78 190 1.0 1.0 0.00 0.00 0.00 88 1015.3
20260905063502 78 185 0.0 0.0 0.00 0.00 0.00 88 1015.3
20260905062959 78 186 0.0 0.0 0.00 0.00 0.00 88 1015.4
20260905062458 78 179 0.0 0.0 0.00 0.00 0.00 88 1015.3
20260905061954 78 179 1.0 1.0 0.00 0.00 0.00 88 1015.3
20260905061453 78 179 0.0 0.0 0.00 0.00 0.00 87 1015.4
20260905060953 79 179 0.0 0.0 0.00 0.00 0.00 87 1015.4
20260905060449 79 179 0.0 0.0 0.00 0.00 0.00 85 1015.5
20260905055949 79 179 0.0 0.0 0.00 0.00 0.00 85 1015.3
20260905055449 79 188 0.0 0.0 0.00 0.00 0.00 85 1015.4
20260905054949 80 191 1.0 1.0 0.00 0.00 0.00 85 1015.1
20260905054444 79 192 0.0 0.0 0.00 0.00 0.00 85 1015.3
20260905053945 79 197 1.0 1.0 0.00 0.00 0.00 85 1015.2
20260905053439 80 193 1.0 1.0 0.00 0.00 0.00 84 1015.3
20260905052936 80 159 0.0 1.0 0.00 0.00 0.00 84 1015.3
20260905052434 80 168 0.0 0.0 0.00 0.00 0.00 84 1015.3
20260905051934 80 168 0.0 0.0 0.00 0.00 0.00 82 1015.2
20260905051430 80 171 0.0 0.0 0.00 0.00 0.00 84 1015.2
20260905050927 80 172 0.0 0.0 0.00 0.00 0.00 84 1015.2
20260905050423 80 172 0.0 0.0 0.00 0.00 0.00 83 1015.5
20260905045919 80 172 0.0 0.0 0.00 0.00 0.00 83 1015.3
20260905045414 80 172 0.0 0.0 0.00 0.00 0.00 83 1015.3
20260905044909 80 171 1.0 0.0 0.00 0.00 0.00 83 1015.3
20260905044404 80 170 1.0 1.0 0.00 0.00 0.00 83 1015.2
20260905043903 81 170 0.0 0.0 0.00 0.00 0.00 82 1015.3
20260905043358 81 170 1.0 1.0 0.00 0.00 0.00 81 1015.3
20260905042857 81 148 0.0 0.0 0.00 0.00 0.00 80 1015.5
20260905042353 81 151 1.0 1.0 0.00 0.00 0.00 80 1015.3
20260905041847 82 175 0.0 1.0 0.00 0.00 0.00 79 1015.4
20260905041344 81 179 0.0 0.0 0.00 0.00 0.00 79 1015.3
20260905040843 82 180 0.0 0.0 0.00 0.00 0.00 79 1015.6
20260905040343 82 180 0.0 0.0 0.00 0.00 0.00 78 1015.3
20260905035842 83 181 1.0 1.0 0.00 0.00 0.00 77 1015.8
20260905035338 82 181 0.0 0.0 0.00 0.00 0.00 76 1015.6
20260905034834 82 212 1.0 1.0 0.00 0.00 0.00 78 1015.8
20260905034330 82 212 1.0 0.0 0.00 0.00 0.00 77 1015.9
20260905033828 83 210 2.0 2.0 0.00 0.00 0.00 77 1015.7
20260905033324 83 172 1.0 1.0 0.00 0.00 0.00 76 1015.9
20260905032823 83 164 0.0 0.0 0.00 0.00 0.00 75 1015.7
20260905032319 84 164 0.0 0.0 0.00 0.00 0.00 74 1015.9
20260905031814 84 164 0.0 0.0 0.00 0.00 0.00 73 1015.8
20260905031310 85 164 1.0 0.0 0.00 0.00 0.00 71 1015.8
20260905030805 84 163 1.0 1.0 0.00 0.00 0.00 72 1015.9
20260905030300 84 164 0.0 0.0 0.00 0.00 0.00 72 1015.8
20260905025759 84 164 1.0 1.0 0.00 0.00 0.00 72 1016.0
20260905025255 84 165 1.0 1.0 0.00 0.00 0.00 72 1015.9
20260905024751 84 170 1.0 1.0 0.00 0.00 0.00 72 1015.7
20260905024246 85 163 2.0 2.0 0.00 0.00 0.00 70 1015.8
20260905023741 85 203 0.0 0.0 0.00 0.00 0.00 70 1015.5
20260905023236 85 204 0.0 0.0 0.00 0.00 0.00 69 1015.7
20260905022735 86 204 0.0 0.0 0.00 0.00 0.00 68 1015.7
20260905022231 86 205 1.0 1.0 0.00 0.00 0.00 67 1015.7
20260905021731 86 205 1.0 1.0 0.00 0.00 0.00 66 1015.8
20260905021226 87 212 0.0 0.0 0.00 0.00 0.00 66 1015.7
20260905020720 87 212 1.0 1.0 0.00 0.00 0.00 65 1015.7
20260905020216 88 212 1.0 1.0 0.00 0.00 0.00 62 1015.8
20260905015714 89 212 1.0 1.0 0.00 0.00 0.00 60 1015.6
20260905015215 89 211 0.0 0.0 0.00 0.00 0.00 58 1015.8
20260905014713 89 214 1.0 1.0 0.00 0.00 0.00 57 1015.6
20260905014209 89 196 1.0 1.0 0.00 0.00 0.00 57 1015.7
20260905013705 90 217 2.0 2.0 0.00 0.00 0.00 57 1015.3
20260905013201 90 183 1.0 1.0 0.00 0.00 0.00 57 1015.7